Location: Brno
(49.2000°N, 16.6330°E)
Time: 20:49:20
(UTC+02:00)

Explorer 11/Cluster Stage 4 - Pass Details

Date: 30 July 2021
Orbit: 467 x 1257 km, 28.8° (Epoch: 17 September)

Event Time Altitude Azimuth Distance (km) Brightness Sun altitude
Rises 14:05:15 0° 243° (WSW) 4,113 10.7 56.5°
Reaches altitude 10° 14:10:41 10° 214° (SW) 3,010 10.3 56.0°
Maximum altitude 14:12:56 12° 196° (SSW) 2,821 10.2 55.9°
Drops below altitude 10° 14:15:06 10° 178° (S) 2,855 10.1 55.7°
Sets 14:19:50 0° 147° (SSE) 3,598 10.1 55.2°
